www.pogodaiklimat.ru

Погода и климат >> Архив погоды >> Того >> Ломе


ПОГОДА в Ломе

  • Прогноз погоды в Ломе
  • Монитор погоды в Ломе

АРХИВ ПОГОДЫ в Ломе

Время (UTC), дата Ветер
(напр.,м/с)
 
Видим.   Явления Облачность Т
(С)
Тd
(С)
f
(%)
Тe
(С)
Тes
(С)
Комфортность P
(гПа)
Po
(гПа)
Тmin
(С)
Tmax
(С)
R
(мм)
R24
(мм)
S
(см)
00 11.06 ЮЗ 3 10 км 9/1 300 м
[Sc Ci sp]
+26.7 +25.7 94 +39 +39 очень
душно
1012.7 1010.1
06 11.06 З 2 10 км 9/5 300 м
[Cu Sc Ac As Ci sp]
+25.6 +24.9 96 +36 +36 очень
душно
1013.7 1011.0 +23.6
12 11.06 Ю 5 12 км 9/3 400 м
[Cu Sc Ac lent Ci sp]
+29.5 +25.1 77 +43 +47 опасность
перегрева
1013.8 1011.2
18 11.06 Ю 5 10 км 9/1 300 м
[Sc Ci sp]
+27.5 +25.1 87 +40 +40 очень
душно
1012.0 1009.4 +30.2
00 12.06 ЮЗ 4 10 км 8/3 300 м
[Sc Ci sp]
+26.5 +24.8 90 +38 +38 очень
душно
1012.5 1009.9
06 12.06 З 3 8000 м 9/8 300 м
[Cu Sc Ci sp]
+25.9 +25.3 96 +37 +37 очень
душно
1013.9 1011.3 +25.5
12 12.06 ЮЗ 5 12 км 9/6 480 м
[Cu Sc Ci sp]
+29.9 +25.1 75 +43 +47 опасность
перегрева
1014.6 1012.0
18 12.06 ЮЗ 6 10 км 6/1 400 м
[Cb cap Ci sp]
+27.8 +25.7 88 +41 +41 опасность
перегрева
1012.1 1009.5 +31.0
00 13.06 З 2 10 км 9/3 400 м
[Sc Ac lent Ci sp]
+26.7 +25.7 94 +39 +39 очень
душно
1014.5 1011.9
06 13.06 ЮЗ 3 8000 м 9/9 300 м
[Cu Sc]
+26.0 +25.1 95 +37 +37 очень
душно
1014.1 1011.5 +25.8
12 13.06 ЮЗ 4 10 км 9/3 400 м
[Cu med, cong Ac trans]
+31.2 +26.1 74 +47 +51 опасность
перегрева
1013.9 1011.3
18 13.06 ЮЗ 5 10 км 9/3 300 м
[Cb cap Ac trans Ci sp]
+27.7 +26.0 90 +41 +41 опасность
перегрева
1012.0 1009.4 +31.6
00 14.06 З 5 10 км 9/9 400 м
[Cu Sc]
+26.3 +24.6 90 +37 +37 очень
душно
1013.6 1011.0
06 14.06 ЮЗ 5 7000 м в посл. час гроза {дождь} 9/9 300 м
[Cu Sc]
+24.9 +24.2 96 +34 +34 очень
душно
1013.7 1011.1 +24.6 17
12 14.06 З 4 10 км {дождь} 9/4 480 м
[Cu med, cong Ac lent Ci sp]
+29.7 +25.4 78 +44 +48 опасность
перегрева
1013.4 1010.8 0.0
00 15.06 С 1 10 км {гроза} 9/9 300 м
[Cu Sc]
+26.3 +24.4 89 +37 +37 очень
душно
1014.0 1011.4
06 15.06 ЮЗ 2 8000 м {морось} 9/9 300 м
[Cu Sc]
+26.1 +24.8 93 +37 +37 очень
душно
1013.4 1010.7 +25.2 0.5
12 15.06 ЮЗ 6 12 км {морось} 9/4 480 м
[Cu med, cong Ac und]
+30.0 +25.2 76 +44 +46 опасность
перегрева
1013.9 1011.3 0.2
18 15.06 Ю 5 10 км 9/4 300 м
[Cb cap Ac As]
+26.7 +25.1 91 +38 +38 очень
душно
1013.2 1010.6 +30.3 0.2
00 16.06 ЮЗ 2 10 км {дождь} 9/3 300 м
[Sc Ac As]
+26.0 +25.6 98 +38 +38 очень
душно
1015.2 1012.2 2
06 16.06 З 1 6000 м 9/4 300 м
[Cu Sc Ac trans Ci sp]
+25.8 +25.4 98 +38 +38 очень
душно
1014.2 1011.6 +19.6 2
18 16.06 Ю 5 12 км 9/1 300 м
[Sc Ac trans Ci sp]
+27.4 +25.7 90 +40 +40 очень
душно
1012.8 1010.2 +30.5
00 17.06 ЮЗ 3 10 км 9/4 300 м
[Sc Ci sp]
+26.7 +25.0 90 +38 +38 очень
душно
1014.0 1011.4
06 17.06 З 4 8000 м 9/1 300 м
[Sc Ci sp]
+25.7 +24.7 94 +36 +36 очень
душно
1013.8 1011.1 +25.5
12 17.06 Ю 6 12 км 9/3 480 м
[Cu med, cong Ci sp]
+30.5 +26.1 77 +46 +50 опасность
перегрева
1013.6 1011.0
18 17.06 Ю 5 10 км 9/1 300 м
[Cb cap Ac lent Ci sp]
+27.6 +26.2 92 +42 +42 опасность
перегрева
1012.5 1009.9 +30.6

 

Местоположение метеостанции Ломе (Того): широта 6.17 долгота 1.25 высота над уровнем моря 25 м.

В архиве по умолчанию представлена погода в Ломе за последнюю неделю. Архивные данные за месяц целиком и за предыдущие месяцы, начиная с января 2011 года, Вы можете получить, выбрав интересующий диапазон дат из раскрывающегося списка и нажав кнопку "Ввод!".


*Определитесь, кто Вы:
робот инопланетянин человек

Внимание! Время в таблицах - всемирное. Для получения местного времени необходимо прибавить поправку, которая равна 0 ч.

Смотрите также архив погоды в соседних городах и на ближайших метеорологических станциях:

Погода в Акатзи (Гана) (50 км)
Погода в Таблигбо (Того) (53 км)
Погода в Ада (Гана) (81 км)
Погода в Хо (Гана) (99 км)
Погода в Акюсе (Гана) (125 км)
Погода в Котону (Бенин) (127 км)
Погода в Боиконе (Бенин) (143 км)
Погода в Тема (Гана) (151 км)
Погода в Атакпаме (Того) (157 км)
Погода в Кофоридуа (Гана) (166 км)

Пояснения к столбцам:

Ветер - указаны скорость ветра в м/с - средняя за 10 мин, порывы в срок и между сроками (в фигурных скобках) и направление, откуда дует ветер: С - северный, СВ - северо-восточный, В - восточный, ЮВ - юго-восточный, Ю - южный, ЮЗ - юго-западный, З - западный, СЗ - северо-западный.
Видимость - горизонтальная дальность видимости в метрах или километрах. При видимости от 1 до 10 км при отсутствии осадков обычно наблюдается дымка, при ухудшении видимости до 1 км и менее - туман. В сухую погоду видимость может ухудшаться дымом, пылью или мглою.
Явления - указаны атмосферные явления, наблюдавшиеся в срок или в последний час перед сроком; фигурными скобками обозначены явления, наблюдавшиеся между сроками (за 1-3 часа до срока); квадратными скобками обозначены град или гололедные отложения с указанием их диаметра в мм.
Облачность - указаны через наклонную черту общая и нижняя облачность в баллах и высота нижней границы облаков в метрах; квадратными скобками обозначены формы облаков: Ci - перистые, Cs - перисто-слоистые, Cc - перисто-кучевые, Ac - высококучевые, As - высокослоистые, Sc - слоисто-кучевые, Ns - слоисто-дождевые, Cu - кучевые, Cb - кучево-дождевые. Подробнее классификацию облаков см. в Атласе облаков (PDF).
T - Температура воздуха - температура, измеренная на высоте 2 м над землей.
Td - Температура точки росы - температура, при понижении до которой содержащийся в воздухе водяной пар достигнет насыщения.
f - Относительная влажность воздуха - влажноcть воздуха, измеренная на высоте 2 м над землей.
Te - Эффективная температура - температура, которую ощущает одетый по сезону человек в тени. Характеристика душности погоды. При расчете учитывается влияние влажности воздуха и скорости ветра на теплоощущения человека.
Tes - Эффективная температура на солнце - температура, которую ощущает человек, с поправкой на солнечный нагрев. Характеристика знойности погоды. Зависит от высоты солнца над горизонтом, облачности и скорости ветра. Ночью, в пасмурную погоду, а также при ветре 12 м/с и более поправка равна нулю.
P - Атмосферное давление - приведенное к уровню моря атмосферное давление.
Po - Атмосферное давление - измеренное на уровне метеостанции атмосферное давление.
Tmin - Минимальная температура - минимум температуры воздуха на высоте 2 м над землей.
Tmax - Максимальная температура - максимум температуры воздуха на высоте 2 м над землей.
R - Количество осадков - Количество выпавших осадков за период времени, мм. При наведении курсора мыши на число - период времени, за который выпало указанное количество осадков.
R24 - Количество осадков - Количество выпавших осадков за 24 часа, мм.
S - Снежный покров - Высота снежного покрова, см. При наведении курсора мыши на число - состояние снежного покрова и степень покрытия местности в баллах.